Hourly Data Report for December 04, 2006

TORONTO CITY
ONTARIO

43°40'00.000" N
79°24'00.000" W
112.50 m
6158355
71508
XTO

Download Data

Hourly Data (December 2006)
Hourly Data Report for December 4, 2006
TIME
LST
Temp Definition
°C
Dew Point Definition
°C
Rel Hum Definition
%
Precip. Amount Definition
mm

Wind Dir Definition
10's deg

Wind Spd Definition
km/h
Visibility Definition
km
Stn Press Definition
kPa
Hmdx Definition


Wind Chill Definition


Weather Definition


00:00 -3.1 -9.1 63   LegendMM LegendMM   100.97     LegendNANA
01:00 -3.5 -8.0 71   LegendMM LegendMM   100.95     LegendNANA
02:00 -3.7 -7.6 74   LegendMM LegendMM   100.91     LegendNANA
03:00 -4.1 -7.5 77   LegendMM LegendMM   100.87     LegendNANA
04:00 -4.1 -7.1 80   LegendMM LegendMM   100.83     LegendNANA
05:00 -3.5 -6.5 80   LegendMM LegendMM   100.82     LegendNANA
06:00 -2.9 -6.4 77   LegendMM LegendMM   100.85     LegendNANA
07:00 -2.8 -6.2 77   LegendMM LegendMM   100.89     LegendNANA
08:00 -3.3 -6.0 82   LegendMM LegendMM   100.90     LegendNANA
09:00 -2.7 -9.3 60   LegendMM LegendMM   100.92     LegendNANA
10:00 -1.9 -10.5 52   LegendMM LegendMM   100.95     LegendNANA
11:00 -0.7 -9.0 53   LegendMM LegendMM   100.92     LegendNANA
12:00 -0.6 -7.5 60   LegendMM LegendMM   100.85     LegendNANA
13:00 -0.4 -8.1 56   LegendMM LegendMM   100.78     LegendNANA
14:00 -0.3 -5.7 67   LegendMM LegendMM   100.72     LegendNANA
15:00 -0.5 -7.8 58   LegendMM LegendMM   100.66     LegendNANA
16:00 -0.7 -8.0 58   LegendMM LegendMM   100.64     LegendNANA
17:00 -0.9 -8.3 57   LegendMM LegendMM   100.60     LegendNANA
18:00 -1.1 -9.1 55   LegendMM LegendMM   100.56     LegendNANA
19:00 -1.6 -7.7 63   LegendMM LegendMM   100.53     LegendNANA
20:00 -3.1 -4.6 89   LegendMM LegendMM   100.52     LegendNANA
21:00 -3.4 -5.4 86   LegendMM LegendMM   100.46     LegendNANA
22:00 -3.4 -6.9 77   LegendMM LegendMM   100.40     LegendNANA
23:00 -4.2 -6.6 83   LegendMM LegendMM   100.40     LegendNANA

Notes on Data Quality.

Legend

  • E = Estimated
  • M = Missing
  • NA = Not Available*
  • [empty] = Indicates an unobserved value
Date modified: